This is the latest recevied weather packets stored in our database for station/object K9RCP-24. If no packets are shown the sender has not sent any weather packets the latest 10 day(s).
| Time | Temp. | Humidity | Pressure | Rain* | Wind** | Luminosity | Snow |
|---|---|---|---|---|---|---|---|
| 1777964653 | 11.67° C | 80% | 1016.3 hPa | 0 mm | - | - | - |
| 1777963859 | 11.67° C | 79% | 1015.9 hPa | 0 mm | - | - | - |
| 1777963611 | 11.67° C | 79% | 1015.9 hPa | 0 mm | - | - | - |
| 1777962334 | 11.67° C | 78% | 1015.6 hPa | 0 mm | - | - | - |
| 1777962087 | 12.22° C | 78% | 1015.6 hPa | 0 mm | - | - | - |
| 1777961959 | 12.22° C | 78% | 1015.6 hPa | 0 mm | - | - | - |
| 1777960403 | -17.78° C | 100% | 1015.9 hPa | 0 mm | - | - | - |
| 1777960277 | -17.78° C | 100% | 1015.6 hPa | 0 mm | - | - | - |
| 1777960153 | 12.78° C | 76% | 1015.6 hPa | 0 mm | - | - | - |
| 1777959160 | 13.33° C | 75% | 1015.6 hPa | 0 mm | - | - | - |
| 1777957603 | 13.89° C | 74% | 1015.6 hPa | 0 mm | - | - | - |
| 1777956950 | 13.89° C | 73% | 1015.2 hPa | 0 mm | - | - | - |
| 1777956455 | 13.89° C | 73% | 1015.2 hPa | 0 mm | - | - | - |
| 1777956331 | 13.89° C | 73% | 1014.9 hPa | 0 mm | - | - | - |
| 1777955583 | -17.78° C | 100% | 1014.9 hPa | 0 mm | - | - | - |
| 1777955459 | -17.78° C | 100% | 1015.2 hPa | 0 mm | - | - | - |
| 1777955032 | -17.78° C | 100% | 1014.9 hPa | 0 mm | - | - | - |
| 1777954180 | -17.78° C | 100% | 1014.6 hPa | 0 mm | - | - | - |
| 1777952997 | -17.78° C | 100% | 1014.2 hPa | 0 mm | - | - | - |
| 1777952443 | 16.11° C | 69% | 1014.2 hPa | 0 mm | - | - | - |
| 1777951075 | 16.67° C | 66% | 1013.9 hPa | 0 mm | - | - | - |
| 1777950567 | 17.22° C | 65% | 1014.2 hPa | 0 mm | - | - | - |
| 1777949519 | -17.78° C | 100% | 1013.5 hPa | 0 mm | - | - | - |
| 1777949262 | -17.78° C | 100% | 1013.9 hPa | 0 mm | - | - | - |
| 1777948762 | -17.78° C | 100% | 1013.5 hPa | 0 mm | - | - | - |
* Rain latest hour (hover to see other rain measurements)
** Current wind speed in m/s (hover to see current wind gust speed)